"Sample Date","Sample Time","Sample Value","Units","Flow Rate","Number Channels","Micron Size 0","Counts/Channel 0","Micron Size 1","Counts/Channel 1","Micron Size 2","Counts/Channel 2","Micron Size 3","Counts/Channel 3","Micron Size 4","Counts/Channel 4","Micron Size 5","Counts/Channel 5","Micron Size 6","Counts/Channel 6","Micron Size 7","Counts/Channel 7","Micron Size 8","Counts/Channel 8","Micron Size 9","Counts/Channel 9","Micron Size 10","Counts/Channel 10","Micron Size 11","Counts/Channel 11","Micron Size 12","Counts/Channel 12","Micron Size 13","Counts/Channel 13","Micron Size 14","Counts/Channel 14","Micron Size 15","Counts/Channel 15","Micron Size 16","Counts/Channel 16","Micron Size 17","Counts/Channel 17","Micron Size 18","Counts/Channel 18","Micron Size 19","Counts/Channel 19","Micron Size 20","Counts/Channel 20","Micron Size 21","Counts/Channel 21","Micron Size 22","Counts/Channel 22","Micron Size 23","Counts/Channel 23","Micron Size 24","Counts/Channel 24","Micron Size 25","Counts/Channel 25","Micron Size 26","Counts/Channel 26","Micron Size 27","Counts/Channel 27","Micron Size 28","Counts/Channel 28","Micron Size 29","Counts/Channel 29","Micron Size 30","Counts/Channel 30","Micron Size 31","Counts/Channel 31"
"05/06/08","19:00:01",147.000,"cc",28546.498,6,0.100,116.000,0.200,30.000,0.300,0,0.500,0,1.000,1.000,5.000,0
"05/06/08","19:00:07",158.000,"cc",28588.514,6,0.100,128.000,0.200,28.000,0.300,2.000,0.500,0,1.000,0,5.000,0
"05/06/08","19:00:13",119.000,"cc",28635.318,6,0.100,96.000,0.200,21.000,0.300,2.000,0.500,0,1.000,0,5.000,0
"05/06/08","19:00:19",149.000,"cc",28601.772,6,0.100,116.000,0.200,31.000,0.300,2.000,0.500,0,1.000,0,5.000,0
"05/06/08","19:00:25",123.000,"cc",28644.375,6,0.100,99.000,0.200,21.000,0.300,2.000,0.500,0,1.000,1.000,5.000,0
"05/06/08","19:00:31",163.000,"cc",28668.690,6,0.100,134.000,0.200,27.000,0.300,2.000,0.500,0,1.000,0,5.000,0
"05/06/08","19:00:37",133.000,"cc",28689.207,6,0.100,99.000,0.200,33.000,0.300,1.000,0.500,0,1.000,0,5.000,0
"05/06/08","19:00:43",121.000,"cc",28665.377,6,0.100,94.000,0.200,25.000,0.300,2.000,0.500,0,1.000,0,5.000,0
"05/06/08","19:00:49",141.000,"cc",28693.115,6,0.100,110.000,0.200,31.000,0.300,0,0.500,0,1.000,0,5.000,0
"05/06/08","19:00:55",143.000,"cc",28723.572,6,0.100,112.000,0.200,27.000,0.300,2.000,0.500,2.000,1.000,0,5.000,0
"05/06/08","19:01:01",132.000,"cc",28634.447,6,0.100,102.000,0.200,26.000,0.300,3.000,0.500,1.000,1.000,0,5.000,0
"05/06/08","19:01:07",107.000,"cc",28603.541,6,0.100,84.000,0.200,23.000,0.300,0,0.500,0,1.000,0,5.000,0
"05/06/08","19:01:13",135.000,"cc",28620.586,6,0.100,104.000,0.200,30.000,0.300,1.000,0.500,0,1.000,0,5.000,0
"05/06/08","19:01:19",143.000,"cc",28647.738,6,0.100,108.000,0.200,32.000,0.300,3.000,0.500,0,1.000,0,5.000,0
"05/06/08","19:01:25",164.000,"cc",28601.090,6,0.100,127.000,0.200,35.000,0.300,2.000,0.500,0,1.000,0,5.000,0
"05/06/08","19:01:31",169.000,"cc",28650.115,6,0.100,125.000,0.200,40.000,0.300,4.000,0.500,0,1.000,0,5.000,0
"05/06/08","19:01:37",142.000,"cc",28677.656,6,0.100,98.000,0.200,43.000,0.300,1.000,0.500,0,1.000,0,5.000,0
"05/06/08","19:01:43",138.000,"cc",28653.406,6,0.100,111.000,0.200,26.000,0.300,0,0.500,0,1.000,1.000,5.000,0
"05/06/08","19:01:49",153.000,"cc",28587.125,6,0.100,122.000,0.200,29.000,0.300,2.000,0.500,0,1.000,0,5.000,0
"05/06/08","19:01:55",141.000,"cc",28612.791,6,0.100,114.000,0.200,25.000,0.300,2.000,0.500,0,1.000,0,5.000,0
"05/06/08","19:02:01",164.000,"cc",28693.406,6,0.100,124.000,0.200,39.000,0.300,1.000,0.500,0,1.000,0,5.000,0
"05/06/08","19:02:07",130.000,"cc",28668.082,6,0.100,98.000,0.200,31.000,0.300,1.000,0.500,0,1.000,0,5.000,0
"05/06/08","19:02:13",153.000,"cc",28470.770,6,0.100,127.000,0.200,24.000,0.300,2.000,0.500,0,1.000,0,5.000,0
"05/06/08","19:02:19",155.000,"cc",28358.438,6,0.100,123.000,0.200,29.000,0.300,3.000,0.500,0,1.000,0,5.000,0
"05/06/08","19:02:25",153.000,"cc",28354.496,6,0.100,123.000,0.200,29.000,0.300,1.000,0.500,0,1.000,0,5.000,0
"05/06/08","19:02:31",139.000,"cc",28359.076,6,0.100,107.000,0.200,31.000,0.300,1.000,0.500,0,1.000,0,5.000,0
"05/06/08","19:02:37",145.000,"cc",28358.611,6,0.100,116.000,0.200,28.000,0.300,1.000,0.500,0,1.000,0,5.000,0
"05/06/08","19:02:43",131.000,"cc",28311.729,6,0.100,93.000,0.200,36.000,0.300,2.000,0.500,0,1.000,0,5.000,0
"05/06/08","19:02:49",139.000,"cc",28280.865,6,0.100,104.000,0.200,35.000,0.300,0,0.500,0,1.000,0,5.000,0
"05/06/08","19:02:55",137.000,"cc",28240.104,6,0.100,108.000,0.200,24.000,0.300,3.000,0.500,2.000,1.000,0,5.000,0
"05/06/08","19:03:01",158.000,"cc",28345.914,6,0.100,138.000,0.200,20.000,0.300,0,0.500,0,1.000,0,5.000,0
"05/06/08","19:03:07",114.000,"cc",28370.361,6,0.100,97.000,0.200,15.000,0.300,0,0.500,1.000,1.000,1.000,5.000,0
"05/06/08","19:03:13",123.000,"cc",28287.529,6,0.100,103.000,0.200,20.000,0.300,0,0.500,0,1.000,0,5.000,0
"05/06/08","19:03:19",102.000,"cc",28262.397,6,0.100,81.000,0.200,20.000,0.300,1.000,0.500,0,1.000,0,5.000,0
"05/06/08","19:03:25",160.000,"cc",28340.514,6,0.100,134.000,0.200,26.000,0.300,0,0.500,0,1.000,0,5.000,0
"05/06/08","19:03:31",113.000,"cc",28286.590,6,0.100,87.000,0.200,23.000,0.300,3.000,0.500,0,1.000,0,5.000,0
"05/06/08","19:03:37",123.000,"cc",28325.342,6,0.100,96.000,0.200,26.000,0.300,1.000,0.500,0,1.000,0,5.000,0
"05/06/08","19:03:43",157.000,"cc",28320.777,6,0.100,121.000,0.200,34.000,0.300,2.000,0.500,0,1.000,0,5.000,0
"05/06/08","19:03:49",120.000,"cc",28315.731,6,0.100,92.000,0.200,28.000,0.300,0,0.500,0,1.000,0,5.000,0
"05/06/08","19:03:55",136.000,"cc",28360.467,6,0.100,109.000,0.200,25.000,0.300,1.000,0.500,1.000,1.000,0,5.000,0
"05/06/08","19:04:01",123.000,"cc",28267.051,6,0.100,89.000,0.200,31.000,0.300,2.000,0.500,1.000,1.000,0,5.000,0
"05/06/08","19:04:07",150.000,"cc",28364.307,6,0.100,112.000,0.200,36.000,0.300,2.000,0.500,0,1.000,0,5.000,0
"05/06/08","19:04:13",143.000,"cc",28305.029,6,0.100,118.000,0.200,25.000,0.300,0,0.500,0,1.000,0,5.000,0
"05/06/08","19:04:19",137.000,"cc",28351.654,6,0.100,101.000,0.200,32.000,0.300,1.000,0.500,0,1.000,3.000,5.000,0
"05/06/08","19:04:25",162.000,"cc",28273.109,6,0.100,136.000,0.200,24.000,0.300,1.000,0.500,1.000,1.000,0,5.000,0
"05/06/08","19:04:31",127.000,"cc",28291.611,6,0.100,108.000,0.200,19.000,0.300,0,0.500,0,1.000,0,5.000,0
"05/06/08","19:04:37",140.000,"cc",28303.455,6,0.100,114.000,0.200,25.000,0.300,1.000,0.500,0,1.000,0,5.000,0
"05/06/08","19:04:43",157.000,"cc",28335.152,6,0.100,128.000,0.200,28.000,0.300,1.000,0.500,0,1.000,0,5.000,0
"05/06/08","19:04:49",138.000,"cc",28324.441,6,0.100,112.000,0.200,26.000,0.300,0,0.500,0,1.000,0,5.000,0
"05/06/08","19:04:55",167.000,"cc",28292.906,6,0.100,130.000,0.200,36.000,0.300,0,0.500,0,1.000,1.000,5.000,0
"05/06/08","19:05:01",133.000,"cc",28297.906,6,0.100,108.000,0.200,23.000,0.300,1.000,0.500,1.000,1.000,0,5.000,0
"05/06/08","19:05:07",106.000,"cc",28312.100,6,0.100,84.000,0.200,22.000,0.300,0,0.500,0,1.000,0,5.000,0
"05/06/08","19:05:13",160.000,"cc",28322.195,6,0.100,122.000,0.200,36.000,0.300,2.000,0.500,0,1.000,0,5.000,0
"05/06/08","19:05:19",126.000,"cc",28364.029,6,0.100,92.000,0.200,34.000,0.300,0,0.500,0,1.000,0,5.000,0
"05/06/08","19:05:25",155.000,"cc",28359.342,6,0.100,129.000,0.200,22.000,0.300,3.000,0.500,1.000,1.000,0,5.000,0
"05/06/08","19:05:31",190.000,"cc",28309.549,6,0.100,131.000,0.200,35.000,0.300,6.000,0.500,3.000,1.000,15.000,5.000,0
"05/06/08","19:05:37",154.000,"cc",28251.943,6,0.100,102.000,0.200,31.000,0.300,6.000,0.500,2.000,1.000,13.000,5.000,0
"05/06/08","19:05:43",152.000,"cc",28286.344,6,0.100,113.000,0.200,28.000,0.300,4.000,0.500,0,1.000,7.000,5.000,0
"05/06/08","19:05:49",146.000,"cc",28295.713,6,0.100,115.000,0.200,20.000,0.300,5.000,0.500,1.000,1.000,5.000,5.000,0
"05/06/08","19:05:55",376.000,"cc",28368.824,6,0.100,198.000,0.200,52.000,0.300,21.000,0.500,25.000,1.000,76.000,5.000,4.000
"05/06/08","19:06:01",179.000,"cc",28323.637,6,0.100,119.000,0.200,33.000,0.300,7.000,0.500,6.000,1.000,13.000,5.000,1.000
"05/06/08","19:06:07",149.000,"cc",28278.102,6,0.100,121.000,0.200,25.000,0.300,2.000,0.500,1.000,1.000,0,5.000,0
"05/06/08","19:06:13",148.000,"cc",28324.047,6,0.100,127.000,0.200,21.000,0.300,0,0.500,0,1.000,0,5.000,0
"05/06/08","19:06:19",134.000,"cc",28296.342,6,0.100,107.000,0.200,26.000,0.300,1.000,0.500,0,1.000,0,5.000,0
"05/06/08","19:06:25",143.000,"cc",28289.522,6,0.100,108.000,0.200,33.000,0.300,2.000,0.500,0,1.000,0,5.000,0
"05/06/08","19:06:31",332.000,"cc",28264.781,6,0.100,156.000,0.200,44.000,0.300,19.000,0.500,30.000,1.000,82.000,5.000,1.000
"05/06/08","19:06:37",609.000,"cc",28379.125,6,0.100,246.000,0.200,101.000,0.300,44.000,0.500,57.000,1.000,156.000,5.000,5.000
"05/06/08","19:06:43",320.000,"cc",28390.582,6,0.100,161.000,0.200,51.000,0.300,11.000,0.500,27.000,1.000,67.000,5.000,3.000
"05/06/08","19:06:49",182.000,"cc",28288.797,6,0.100,120.000,0.200,35.000,0.300,7.000,0.500,4.000,1.000,16.000,5.000,0
"05/06/08","19:06:55",139.000,"cc",28291.190,6,0.100,112.000,0.200,25.000,0.300,2.000,0.500,0,1.000,0,5.000,0
"05/06/08","19:07:01",133.000,"cc",28301.195,6,0.100,107.000,0.200,23.000,0.300,1.000,0.500,0,1.000,2.000,5.000,0
"05/06/08","19:07:07",142.000,"cc",28301.557,6,0.100,110.000,0.200,30.000,0.300,1.000,0.500,0,1.000,1.000,5.000,0
"05/06/08","19:07:13",122.000,"cc",28357.652,6,0.100,95.000,0.200,23.000,0.300,2.000,0.500,1.000,1.000,1.000,5.000,0
"05/06/08","19:07:19",146.000,"cc",28293.709,6,0.100,107.000,0.200,39.000,0.300,0,0.500,0,1.000,0,5.000,0
"05/06/08","19:07:25",174.000,"cc",28302.930,6,0.100,134.000,0.200,26.000,0.300,5.000,0.500,2.000,1.000,7.000,5.000,0
"05/06/08","19:07:31",139.000,"cc",28305.777,6,0.100,104.000,0.200,27.000,0.300,2.000,0.500,1.000,1.000,5.000,5.000,0
"05/06/08","19:07:37",123.000,"cc",28339.482,6,0.100,101.000,0.200,21.000,0.300,1.000,0.500,0,1.000,0,5.000,0
"05/06/08","19:07:43",183.000,"cc",28331.590,6,0.100,164.000,0.200,17.000,0.300,1.000,0.500,1.000,1.000,0,5.000,0
"05/06/08","19:07:49",136.000,"cc",28265.680,6,0.100,108.000,0.200,27.000,0.300,1.000,0.500,0,1.000,0,5.000,0
"05/06/08","19:07:55",134.000,"cc",28343.092,6,0.100,105.000,0.200,25.000,0.300,2.000,0.500,2.000,1.000,0,5.000,0
"05/06/08","19:08:01",125.000,"cc",28292.022,6,0.100,94.000,0.200,26.000,0.300,4.000,0.500,0,1.000,1.000,5.000,0
"05/06/08","19:08:07",125.000,"cc",28362.084,6,0.100,94.000,0.200,30.000,0.300,1.000,0.500,0,1.000,0,5.000,0
"05/06/08","19:08:13",128.000,"cc",28279.447,6,0.100,99.000,0.200,27.000,0.300,2.000,0.500,0,1.000,0,5.000,0
"05/06/08","19:08:19",130.000,"cc",28300.879,6,0.100,107.000,0.200,23.000,0.300,0,0.500,0,1.000,0,5.000,0
"05/06/08","19:08:25",109.000,"cc",28337.889,6,0.100,83.000,0.200,24.000,0.300,2.000,0.500,0,1.000,0,5.000,0
"05/06/08","19:08:31",123.000,"cc",28340.713,6,0.100,103.000,0.200,19.000,0.300,1.000,0.500,0,1.000,0,5.000,0
"05/06/08","19:08:37",127.000,"cc",28316.414,6,0.100,103.000,0.200,23.000,0.300,0,0.500,1.000,1.000,0,5.000,0
"05/06/08","19:08:43",146.000,"cc",28336.666,6,0.100,111.000,0.200,34.000,0.300,0,0.500,1.000,1.000,0,5.000,0
"05/06/08","19:08:49",141.000,"cc",28338.190,6,0.100,111.000,0.200,29.000,0.300,1.000,0.500,0,1.000,0,5.000,0
"05/06/08","19:08:55",147.000,"cc",28337.623,6,0.100,110.000,0.200,34.000,0.300,3.000,0.500,0,1.000,0,5.000,0
"05/06/08","19:09:01",130.000,"cc",28289.666,6,0.100,101.000,0.200,29.000,0.300,0,0.500,0,1.000,0,5.000,0
"05/06/08","19:09:07",134.000,"cc",28392.129,6,0.100,103.000,0.200,29.000,0.300,0,0.500,1.000,1.000,1.000,5.000,0
"05/06/08","19:09:13",158.000,"cc",28266.352,6,0.100,125.000,0.200,30.000,0.300,3.000,0.500,0,1.000,0,5.000,0
"05/06/08","19:09:19",147.000,"cc",28255.238,6,0.100,116.000,0.200,30.000,0.300,1.000,0.500,0,1.000,0,5.000,0
"05/06/08","19:09:25",139.000,"cc",28333.787,6,0.100,109.000,0.200,28.000,0.300,2.000,0.500,0,1.000,0,5.000,0
"05/06/08","19:09:31",157.000,"cc",28408.090,6,0.100,117.000,0.200,38.000,0.300,1.000,0.500,1.000,1.000,0,5.000,0
"05/06/08","19:09:37",2935.000,"cc",27708.443,6,0.100,2085.000,0.200,546.000,0.300,175.000,0.500,72.000,1.000,22.000,5.000,35.000
"05/06/08","19:09:43",399.000,"cc",27387.943,6,0.100,272.000,0.200,97.000,0.300,20.000,0.500,8.000,1.000,2.000,5.000,0
"05/06/08","19:09:49",209.000,"cc",28280.018,6,0.100,163.000,0.200,40.000,0.300,4.000,0.500,2.000,1.000,0,5.000,0
"05/06/08","19:09:55",139.000,"cc",28546.895,6,0.100,112.000,0.200,25.000,0.300,1.000,0.500,1.000,1.000,0,5.000,0
"05/06/08","19:10:01",150.000,"cc",28549.400,6,0.100,119.000,0.200,31.000,0.300,0,0.500,0,1.000,0,5.000,0
"05/06/08","19:10:07",176.000,"cc",28577.129,6,0.100,143.000,0.200,31.000,0.300,1.000,0.500,0,1.000,1.000,5.000,0
"05/06/08","19:10:13",124.000,"cc",28557.627,6,0.100,96.000,0.200,26.000,0.300,1.000,0.500,0,1.000,1.000,5.000,0
"05/06/08","19:10:19",138.000,"cc",28549.506,6,0.100,105.000,0.200,28.000,0.300,3.000,0.500,1.000,1.000,1.000,5.000,0
"05/06/08","19:10:25",135.000,"cc",28438.617,6,0.100,105.000,0.200,29.000,0.300,0,0.500,0,1.000,1.000,5.000,0
"05/06/08","19:10:31",118.000,"cc",28361.875,6,0.100,93.000,0.200,24.000,0.300,1.000,0.500,0,1.000,0,5.000,0
"05/06/08","19:10:37",130.000,"cc",28343.838,6,0.100,102.000,0.200,26.000,0.300,2.000,0.500,0,1.000,0,5.000,0
"05/06/08","19:10:43",126.000,"cc",28348.023,6,0.100,102.000,0.200,21.000,0.300,2.000,0.500,0,1.000,1.000,5.000,0
"05/06/08","19:10:49",136.000,"cc",28290.234,6,0.100,101.000,0.200,34.000,0.300,1.000,0.500,0,1.000,0,5.000,0
"05/06/08","19:10:55",154.000,"cc",28326.094,6,0.100,125.000,0.200,27.000,0.300,1.000,0.500,1.000,1.000,0,5.000,0
"05/06/08","19:11:01",146.000,"cc",28350.000,6,0.100,116.000,0.200,28.000,0.300,2.000,0.500,0,1.000,0,5.000,0
"05/06/08","19:11:07",155.000,"cc",28316.801,6,0.100,139.000,0.200,16.000,0.300,0,0.500,0,1.000,0,5.000,0
"05/06/08","19:11:13",120.000,"cc",28362.166,6,0.100,95.000,0.200,24.000,0.300,1.000,0.500,0,1.000,0,5.000,0
"05/06/08","19:11:19",160.000,"cc",28332.100,6,0.100,129.000,0.200,30.000,0.300,1.000,0.500,0,1.000,0,5.000,0
"05/06/08","19:11:25",133.000,"cc",28303.432,6,0.100,105.000,0.200,27.000,0.300,1.000,0.500,0,1.000,0,5.000,0
"05/06/08","19:11:31",4394.000,"cc",28135.262,6,0.100,3776.000,0.200,376.000,0.300,100.000,0.500,87.000,1.000,45.000,5.000,10.000
"05/06/08","19:11:37",585.000,"cc",26929.623,6,0.100,397.000,0.200,119.000,0.300,35.000,0.500,26.000,1.000,8.000,5.000,0
"05/06/08","19:11:43",234.000,"cc",26751.705,6,0.100,177.000,0.200,47.000,0.300,7.000,0.500,3.000,1.000,0,5.000,0
"05/06/08","19:11:49",129.000,"cc",26784.410,6,0.100,101.000,0.200,22.000,0.300,4.000,0.500,2.000,1.000,0,5.000,0
"05/06/08","19:11:55",142.000,"cc",26816.998,6,0.100,106.000,0.200,32.000,0.300,2.000,0.500,1.000,1.000,1.000,5.000,0
"05/06/08","19:12:01",123.000,"cc",26815.236,6,0.100,98.000,0.200,24.000,0.300,1.000,0.500,0,1.000,0,5.000,0
"05/06/08","19:12:07",131.000,"cc",26746.842,6,0.100,101.000,0.200,28.000,0.300,2.000,0.500,0,1.000,0,5.000,0
"05/06/08","19:12:13",101.000,"cc",26755.895,6,0.100,73.000,0.200,24.000,0.300,3.000,0.500,0,1.000,1.000,5.000,0
"05/06/08","19:12:19",119.000,"cc",26828.668,6,0.100,102.000,0.200,17.000,0.300,0,0.500,0,1.000,0,5.000,0
"05/06/08","19:12:25",140.000,"cc",26882.522,6,0.100,119.000,0.200,21.000,0.300,0,0.500,0,1.000,0,5.000,0
"05/06/08","19:12:31",150.000,"cc",26884.725,6,0.100,124.000,0.200,24.000,0.300,1.000,0.500,1.000,1.000,0,5.000,0
"05/06/08","19:12:37",118.000,"cc",27076.596,6,0.100,99.000,0.200,18.000,0.300,0,0.500,1.000,1.000,0,5.000,0
"05/06/08","19:12:43",133.000,"cc",27294.955,6,0.100,114.000,0.200,19.000,0.300,0,0.500,0,1.000,0,5.000,0
"05/06/08","19:12:49",163.000,"cc",27611.002,6,0.100,132.000,0.200,31.000,0.300,0,0.500,0,1.000,0,5.000,0
"05/06/08","19:12:55",130.000,"cc",28043.219,6,0.100,107.000,0.200,22.000,0.300,1.000,0.500,0,1.000,0,5.000,0
"05/06/08","19:13:01",126.000,"cc",28493.016,6,0.100,97.000,0.200,28.000,0.300,0,0.500,1.000,1.000,0,5.000,0
"05/06/08","19:13:07",139.000,"cc",28551.084,6,0.100,108.000,0.200,27.000,0.300,4.000,0.500,0,1.000,0,5.000,0
"05/06/08","19:13:13",132.000,"cc",28624.565,6,0.100,114.000,0.200,17.000,0.300,0,0.500,1.000,1.000,0,5.000,0
"05/06/08","19:13:19",1554.000,"cc",28490.473,6,0.100,1056.000,0.200,329.000,0.300,116.000,0.500,36.000,1.000,12.000,5.000,5.000
"05/06/08","19:13:25",452.000,"cc",28588.203,6,0.100,347.000,0.200,76.000,0.300,23.000,0.500,3.000,1.000,2.000,5.000,1.000
"05/06/08","19:13:31",170.000,"cc",28719.158,6,0.100,132.000,0.200,35.000,0.300,1.000,0.500,2.000,1.000,0,5.000,0
"05/06/08","19:13:37",150.000,"cc",28584.607,6,0.100,119.000,0.200,30.000,0.300,1.000,0.500,0,1.000,0,5.000,0
"05/06/08","19:13:43",147.000,"cc",28616.967,6,0.100,114.000,0.200,31.000,0.300,2.000,0.500,0,1.000,0,5.000,0
"05/06/08","19:13:49",128.000,"cc",28682.928,6,0.100,97.000,0.200,30.000,0.300,1.000,0.500,0,1.000,0,5.000,0
"05/06/08","19:13:55",156.000,"cc",28569.291,6,0.100,126.000,0.200,29.000,0.300,1.000,0.500,0,1.000,0,5.000,0
"05/06/08","19:14:01",135.000,"cc",28603.236,6,0.100,107.000,0.200,28.000,0.300,0,0.500,0,1.000,0,5.000,0
"05/06/08","19:14:07",124.000,"cc",28561.170,6,0.100,96.000,0.200,27.000,0.300,0,0.500,1.000,1.000,0,5.000,0
"05/06/08","19:14:13",130.000,"cc",28553.959,6,0.100,106.000,0.200,22.000,0.300,2.000,0.500,0,1.000,0,5.000,0
"05/06/08","19:14:19",134.000,"cc",28523.334,6,0.100,120.000,0.200,13.000,0.300,1.000,0.500,0,1.000,0,5.000,0
"05/06/08","19:14:25",107.000,"cc",28571.660,6,0.100,85.000,0.200,22.000,0.300,0,0.500,0,1.000,0,5.000,0
"05/06/08","19:14:31",129.000,"cc",28563.699,6,0.100,99.000,0.200,29.000,0.300,1.000,0.500,0,1.000,0,5.000,0
"05/06/08","19:14:37",142.000,"cc",28548.115,6,0.100,116.000,0.200,24.000,0.300,2.000,0.500,0,1.000,0,5.000,0
"05/06/08","19:14:43",153.000,"cc",28563.232,6,0.100,120.000,0.200,32.000,0.300,1.000,0.500,0,1.000,0,5.000,0
"05/06/08","19:14:49",122.000,"cc",28523.809,6,0.100,88.000,0.200,34.000,0.300,0,0.500,0,1.000,0,5.000,0
"05/06/08","19:14:55",132.000,"cc",28545.297,6,0.100,110.000,0.200,20.000,0.300,1.000,0.500,0,1.000,1.000,5.000,0
"05/06/08","19:15:01",145.000,"cc",28627.086,6,0.100,122.000,0.200,23.000,0.300,0,0.500,0,1.000,0,5.000,0
"05/06/08","19:15:07",157.000,"cc",28525.457,6,0.100,136.000,0.200,19.000,0.300,1.000,0.500,1.000,1.000,0,5.000,0
"05/06/08","19:15:13",153.000,"cc",28504.023,6,0.100,117.000,0.200,33.000,0.300,3.000,0.500,0,1.000,0,5.000,0
"05/06/08","19:15:19",117.000,"cc",28627.201,6,0.100,93.000,0.200,23.000,0.300,1.000,0.500,0,1.000,0,5.000,0
"05/06/08","19:15:25",139.000,"cc",28654.217,6,0.100,111.000,0.200,24.000,0.300,3.000,0.500,1.000,1.000,0,5.000,0
"05/06/08","19:15:31",134.000,"cc",28607.436,6,0.100,109.000,0.200,23.000,0.300,1.000,0.500,1.000,1.000,0,5.000,0
"05/06/08","19:15:37",131.000,"cc",28679.820,6,0.100,101.000,0.200,28.000,0.300,1.000,0.500,1.000,1.000,0,5.000,0
"05/06/08","19:15:43",143.000,"cc",28595.572,6,0.100,118.000,0.200,25.000,0.300,0,0.500,0,1.000,0,5.000,0
"05/06/08","19:15:49",133.000,"cc",28507.115,6,0.100,114.000,0.200,19.000,0.300,0,0.500,0,1.000,0,5.000,0
"05/06/08","19:15:55",115.000,"cc",28570.633,6,0.100,91.000,0.200,22.000,0.300,2.000,0.500,0,1.000,0,5.000,0
"05/06/08","19:16:01",109.000,"cc",28643.135,6,0.100,88.000,0.200,21.000,0.300,0,0.500,0,1.000,0,5.000,0
"05/06/08","19:16:07",109.000,"cc",28545.522,6,0.100,79.000,0.200,28.000,0.300,2.000,0.500,0,1.000,0,5.000,0
"05/06/08","19:16:13",148.000,"cc",28520.602,6,0.100,120.000,0.200,26.000,0.300,1.000,0.500,0,1.000,1.000,5.000,0
"05/06/08","19:16:19",122.000,"cc",28560.297,6,0.100,105.000,0.200,16.000,0.300,1.000,0.500,0,1.000,0,5.000,0
"05/06/08","19:16:25",161.000,"cc",28664.565,6,0.100,130.000,0.200,30.000,0.300,1.000,0.500,0,1.000,0,5.000,0
"05/06/08","19:16:31",127.000,"cc",28644.941,6,0.100,101.000,0.200,23.000,0.300,1.000,0.500,1.000,1.000,1.000,5.000,0
"05/06/08","19:16:37",236.000,"cc",28610.943,6,0.100,148.000,0.200,33.000,0.300,12.000,0.500,14.000,1.000,27.000,5.000,2.000
"05/06/08","19:16:43",140.000,"cc",28558.779,6,0.100,107.000,0.200,25.000,0.300,1.000,0.500,1.000,1.000,6.000,5.000,0
"05/06/08","19:16:49",216.000,"cc",28661.959,6,0.100,131.000,0.200,31.000,0.300,8.000,0.500,8.000,1.000,38.000,5.000,0
"05/06/08","19:16:55",205.000,"cc",28516.742,6,0.100,125.000,0.200,25.000,0.300,7.000,0.500,15.000,1.000,31.000,5.000,2.000
"05/06/08","19:17:01",278.000,"cc",28564.098,6,0.100,144.000,0.200,42.000,0.300,15.000,0.500,27.000,1.000,49.000,5.000,1.000
"05/06/08","19:17:07",435.000,"cc",28530.826,6,0.100,180.000,0.200,57.000,0.300,39.000,0.500,45.000,1.000,110.000,5.000,4.000
"05/06/08","19:17:13",231.000,"cc",28563.799,6,0.100,123.000,0.200,40.000,0.300,10.000,0.500,18.000,1.000,36.000,5.000,4.000
"05/06/08","19:17:19",1743.000,"cc",28596.744,6,0.100,522.000,0.200,215.000,0.300,190.000,0.500,260.000,1.000,552.000,5.000,4.000
"05/06/08","19:17:25",2217.000,"cc",28562.455,6,0.100,653.000,0.200,303.000,0.300,209.000,0.500,318.000,1.000,722.000,5.000,12.000
"05/06/08","19:17:31",1512.000,"cc",28556.354,6,0.100,545.000,0.200,192.000,0.300,150.000,0.500,165.000,1.000,457.000,5.000,3.000
"05/06/08","19:17:37",1018.000,"cc",28241.111,6,0.100,538.000,0.200,153.000,0.300,65.000,0.500,73.000,1.000,181.000,5.000,8.000
"05/06/08","19:17:43",397.000,"cc",28494.711,6,0.100,184.000,0.200,58.000,0.300,25.000,0.500,31.000,1.000,99.000,5.000,0
"05/06/08","19:17:49",772.000,"cc",28572.504,6,0.100,275.000,0.200,107.000,0.300,71.000,0.500,99.000,1.000,217.000,5.000,3.000
"05/06/08","19:17:55",403.000,"cc",28446.967,6,0.100,169.000,0.200,62.000,0.300,35.000,0.500,44.000,1.000,90.000,5.000,3.000
"05/06/08","19:18:01",143.000,"cc",28365.809,6,0.100,110.000,0.200,29.000,0.300,2.000,0.500,2.000,1.000,0,5.000,0
"05/06/08","19:18:07",127.000,"cc",28270.313,6,0.100,104.000,0.200,21.000,0.300,2.000,0.500,0,1.000,0,5.000,0
"05/06/08","19:18:13",144.000,"cc",28342.475,6,0.100,111.000,0.200,29.000,0.300,4.000,0.500,0,1.000,0,5.000,0
"05/06/08","19:18:19",140.000,"cc",28353.598,6,0.100,109.000,0.200,31.000,0.300,0,0.500,0,1.000,0,5.000,0
"05/06/08","19:18:25",136.000,"cc",28330.752,6,0.100,108.000,0.200,27.000,0.300,1.000,0.500,0,1.000,0,5.000,0
"05/06/08","19:18:31",116.000,"cc",28319.766,6,0.100,90.000,0.200,25.000,0.300,1.000,0.500,0,1.000,0,5.000,0
"05/06/08","19:18:37",124.000,"cc",28316.764,6,0.100,106.000,0.200,18.000,0.300,0,0.500,0,1.000,0,5.000,0
"05/06/08","19:18:43",126.000,"cc",28296.295,6,0.100,101.000,0.200,23.000,0.300,1.000,0.500,0,1.000,1.000,5.000,0
"05/06/08","19:18:49",139.000,"cc",28289.721,6,0.100,113.000,0.200,25.000,0.300,1.000,0.500,0,1.000,0,5.000,0
"05/06/08","19:18:55",145.000,"cc",28329.418,6,0.100,125.000,0.200,20.000,0.300,0,0.500,0,1.000,0,5.000,0
"05/06/08","19:19:01",139.000,"cc",28358.912,6,0.100,109.000,0.200,26.000,0.300,3.000,0.500,1.000,1.000,0,5.000,0
"05/06/08","19:19:07",124.000,"cc",28278.965,6,0.100,98.000,0.200,21.000,0.300,2.000,0.500,2.000,1.000,1.000,5.000,0
"05/06/08","19:19:13",104.000,"cc",28370.322,6,0.100,81.000,0.200,20.000,0.300,2.000,0.500,1.000,1.000,0,5.000,0
"05/06/08","19:19:19",124.000,"cc",28227.408,6,0.100,97.000,0.200,26.000,0.300,0,0.500,1.000,1.000,0,5.000,0
"05/06/08","19:19:25",386.000,"cc",28345.590,6,0.100,166.000,0.200,66.000,0.300,20.000,0.500,42.000,1.000,91.000,5.000,1.000
"05/06/08","19:19:31",259.000,"cc",28379.801,6,0.100,166.000,0.200,26.000,0.300,15.000,0.500,18.000,1.000,32.000,5.000,2.000
"05/06/08","19:19:37",126.000,"cc",28313.514,6,0.100,103.000,0.200,22.000,0.300,1.000,0.500,0,1.000,0,5.000,0
"05/06/08","19:19:43",152.000,"cc",28276.576,6,0.100,123.000,0.200,24.000,0.300,5.000,0.500,0,1.000,0,5.000,0
"05/06/08","19:19:49",139.000,"cc",28287.801,6,0.100,111.000,0.200,27.000,0.300,1.000,0.500,0,1.000,0,5.000,0
"05/06/08","19:19:55",129.000,"cc",28302.373,6,0.100,106.000,0.200,21.000,0.300,2.000,0.500,0,1.000,0,5.000,0